User: anonymous   Login
Location: Caltech
(34.1382°N, 118.1253°W)
Time: 11:15:20
(UTC-07:00)
Language:

CZ-4B DEB - Orbit

View from above orbital plane
View from above orbital plane
View from above satellite
View from above satellite

Ground track
Ground track

The orbit data is extracted from the following two-line orbital elements,

1 27433U 02024D   15117.48851978  .00000453  00000-0  27200-3 0  9998
2 27433 098.8694 083.8552 0015790 098.1031 262.1933 14.11871875666850
Epoch (UTC): 27 April 2015 11:43:28
Eccentricity: 0.0015790
inclination: 98.8694°
perigee height: 841 km
apogee height: 864 km
right ascension of ascending node: 83.8552°
argument of perigee: 98.1031°
revolutions per day: 14.11871875
mean anomaly at epoch: 262.1933°
orbit number at epoch: 66685

The dashed part of the orbit path shows where the satellite is in the earth's shadow,  

DLR